• In Hungary
  • List of Countries
  • For 7 days
  • Water Temperature
  • Satellite Maps
  • Weather Map
  • News
  • Weather Widgets
  • user-avatar
    Login

    Hourly Weather Vulpesti

    Today, 21 October, Sunday

    Time Temperature Precipitation Wind Pressure Humidity
    00:00 +13°C° 0 mm 3 mps 757 mmHg 84%
    01:00 +12°C° 0 mm 3 mps 757 mmHg 85%
    02:00 +12°C° 0 mm 3 mps 757 mmHg 86%
    03:00 +13°C° 0 mm 2 mps 757 mmHg 87%
    04:00 +13°C° 0 mm 2 mps 757 mmHg 88%
    05:00 +12°C° 0 mm 2 mps 757 mmHg 89%
    06:00 +13°C° 0 mm 2 mps 757 mmHg 86%
    07:00 +12°C° 0 mm 3 mps 757 mmHg 84%
    08:00 +12°C° 0 mm 3 mps 757 mmHg 82%
    09:00 +13°C° 0 mm 3 mps 757 mmHg 74%
    10:00 +14°C° 0 mm 3 mps 758 mmHg 66%
    11:00 +17°C° 0 mm 4 mps 758 mmHg 59%
    12:00 +17°C° 0 mm 4 mps 758 mmHg 55%
    13:00 +18°C° 0 mm 4 mps 758 mmHg 52%
    14:00 +18°C° 0 mm 4 mps 758 mmHg 49%
    15:00 +18°C° 0 mm 4 mps 758 mmHg 51%
    16:00 +17°C° 0 mm 4 mps 758 mmHg 53%
    17:00 +16°C° 0 mm 3 mps 758 mmHg 55%
    18:00 +14°C° 0 mm 3 mps 758 mmHg 57%
    19:00 +13°C° 0 mm 3 mps 759 mmHg 60%
    20:00 +12°C° 0 mm 3 mps 759 mmHg 63%
    21:00 +12°C° 0 mm 3 mps 760 mmHg 65%
    22:00 +11°C° 0 mm 3 mps 760 mmHg 68%
    23:00 +10°C° 0 mm 3 mps 760 mmHg 70%

    Tomorrow, 22 October, Monday

    Time Temperature Precipitation Wind Pressure Humidity
    00:00 +10°C° 0 mm 3 mps 760 mmHg 72%
    01:00 +9°C° 0 mm 3 mps 760 mmHg 74%
    02:00 +9°C° 0 mm 3 mps 761 mmHg 77%
    03:00 +8°C° 0 mm 3 mps 760 mmHg 78%
    04:00 +8°C° 0 mm 3 mps 760 mmHg 80%
    05:00 +7°C° 0 mm 3 mps 760 mmHg 81%
    06:00 +8°C° 0 mm 3 mps 760 mmHg 79%
    07:00 +8°C° 0 mm 3 mps 760 mmHg 76%
    08:00 +8°C° 0 mm 3 mps 761 mmHg 73%
    09:00 +10°C° 0 mm 4 mps 760 mmHg 66%
    10:00 +12°C° 0 mm 4 mps 760 mmHg 58%
    11:00 +13°C° 0 mm 4 mps 760 mmHg 51%
    12:00 +14°C° 0 mm 4 mps 760 mmHg 47%
    13:00 +14°C° 0 mm 4 mps 759 mmHg 44%
    14:00 +15°C° 0 mm 4 mps 759 mmHg 41%
    15:00 +14°C° 0 mm 3 mps 758 mmHg 43%
    16:00 +13°C° 0 mm 3 mps 758 mmHg 45%
    17:00 +13°C° 0 mm 2 mps 758 mmHg 47%
    18:00 +12°C° 0 mm 2 mps 758 mmHg 50%
    19:00 +10°C° 0 mm 2 mps 758 mmHg 52%
    20:00 +9°C° 0 mm 2 mps 758 mmHg 55%
    21:00 +9°C° 0 mm 2 mps 758 mmHg 57%
    22:00 +9°C° 0 mm 2 mps 758 mmHg 59%
    23:00 +8°C° 0 mm 2 mps 758 mmHg 61%

    Day after tomorrow, 23 October, Tuesday

    Time Temperature Precipitation Wind Pressure Humidity
    00:00 +8°C° 0 mm 2 mps 758 mmHg 63%
    01:00 +7°C° 0 mm 2 mps 758 mmHg 65%
    02:00 +7°C° 0 mm 2 mps 758 mmHg 67%
    03:00 +8°C° 0 mm 1 mps 758 mmHg 68%
    04:00 +7°C° 0 mm 1 mps 757 mmHg 70%
    05:00 +7°C° 0 mm 1 mps 757 mmHg 72%
    06:00 +6°C° 0 mm 2 mps 757 mmHg 70%
    07:00 +7°C° 0 mm 2 mps 757 mmHg 69%
    08:00 +7°C° 0 mm 2 mps 757 mmHg 67%
    09:00 +9°C° 0 mm 2 mps 757 mmHg 60%
    10:00 +11°C° 0 mm 3 mps 757 mmHg 53%
    11:00 +12°C° 0 mm 3 mps 756 mmHg 46%
    12:00 +13°C° 0 mm 3 mps 756 mmHg 45%
    13:00 +14°C° 0 mm 3 mps 755 mmHg 43%
    14:00 +15°C° 0 mm 4 mps 754 mmHg 42%
    15:00 +14°C° 0 mm 3 mps 754 mmHg 46%
    16:00 +14°C° 0 mm 2 mps 753 mmHg 51%
    17:00 +13°C° 0 mm 2 mps 753 mmHg 55%
    18:00 +12°C° 0 mm 1 mps 753 mmHg 60%
    19:00 +11°C° 0 mm 1 mps 752 mmHg 64%
    20:00 +10°C° 0 mm 1 mps 752 mmHg 69%
    21:00 +10°C° 0 mm 1 mps 751 mmHg 69%
    22:00 +9°C° 0 mm 1 mps 750 mmHg 70%
    23:00 +8°C° 0 mm 2 mps 749 mmHg 70%

    24 October, Wednesday

    Time Temperature Precipitation Wind Pressure Humidity
    00:00 +9°C° 0 mm 3 mps 748 mmHg 68%
    01:00 +8°C° 0 mm 4 mps 747 mmHg 65%
    02:00 +9°C° 0 mm 5 mps 746 mmHg 62%
    03:00 +9°C° 0.5 mm 6 mps 745 mmHg 63%
    04:00 +9°C° 0.5 mm 6 mps 744 mmHg 63%
    05:00 +9°C° 0.5 mm 7 mps 743 mmHg 63%
    06:00 +10°C° 0.2 mm 6 mps 742 mmHg 61%
    07:00 +10°C° 0.2 mm 6 mps 742 mmHg 60%
    08:00 +10°C° 0.2 mm 5 mps 741 mmHg 58%
    09:00 +11°C° 0.2 mm 6 mps 741 mmHg 55%
    10:00 +11°C° 0.2 mm 6 mps 741 mmHg 52%
    11:00 +12°C° 0.2 mm 7 mps 740 mmHg 48%
    12:00 +12°C° 0.2 mm 8 mps 740 mmHg 47%
    13:00 +11°C° 0.2 mm 8 mps 740 mmHg 46%
    14:00 +11°C° 0.2 mm 9 mps 740 mmHg 44%
    15:00 +8°C° 0.1 mm 9 mps 741 mmHg 46%
    16:00 +7°C° 0.1 mm 9 mps 741 mmHg 47%
    17:00 +6°C° 0.1 mm 9 mps 742 mmHg 49%
    18:00 +5°C° 0 mm 8 mps 742 mmHg 50%
    19:00 +4°C° 0 mm 7 mps 743 mmHg 50%
    20:00 +4°C° 0 mm 6 mps 744 mmHg 51%
    21:00 +4°C° 0 mm 6 mps 744 mmHg 53%
    22:00 +3°C° 0 mm 6 mps 744 mmHg 55%
    23:00 +3°C° 0 mm 6 mps 744 mmHg 57%

    25 October, Thursday

    Time Temperature Precipitation Wind Pressure Humidity
    00:00 +3°C° 0 mm 6 mps 744 mmHg 56%
    01:00 +3°C° 0 mm 6 mps 744 mmHg 56%
    02:00 +2°C° 0 mm 7 mps 744 mmHg 56%
    03:00 +3°C° 0 mm 7 mps 744 mmHg 56%
    04:00 +2°C° 0 mm 8 mps 744 mmHg 57%
    05:00 +2°C° 0 mm 8 mps 744 mmHg 57%
    06:00 +2°C° 0.2 mm 9 mps 744 mmHg 59%
    07:00 +3°C° 0.2 mm 9 mps 745 mmHg 60%
    08:00 +3°C° 0.2 mm 10 mps 745 mmHg 62%
    09:00 +5°C° 0.1 mm 10 mps 746 mmHg 59%
    10:00 +5°C° 0.1 mm 10 mps 746 mmHg 56%
    11:00 +6°C° 0.1 mm 11 mps 747 mmHg 53%
    12:00 +6°C° 0 mm 10 mps 747 mmHg 51%
    13:00 +7°C° 0 mm 9 mps 747 mmHg 48%
    14:00 +7°C° 0 mm 9 mps 747 mmHg 46%
    15:00 +8°C° 0 mm 7 mps 747 mmHg 47%
    16:00 +7°C° 0 mm 5 mps 747 mmHg 48%
    17:00 +7°C° 0 mm 3 mps 748 mmHg 49%
    18:00 +7°C° 0 mm 3 mps 748 mmHg 50%
    19:00 +6°C° 0 mm 2 mps 748 mmHg 52%
    20:00 +7°C° 0 mm 1 mps 748 mmHg 53%
    21:00 +7°C° 0.3 mm 1 mps 748 mmHg 56%
    22:00 +6°C° 0.3 mm 2 mps 748 mmHg 58%
    23:00 +6°C° 0.3 mm 2 mps 748 mmHg 60%

    26 October, Friday

    Time Temperature Precipitation Wind Pressure Humidity
    00:00 +6°C° 0.3 mm 2 mps 748 mmHg 64%
    01:00 +6°C° 0.3 mm 2 mps 748 mmHg 67%
    02:00 +6°C° 0.3 mm 2 mps 748 mmHg 70%
    03:00 +6°C° 0.1 mm 2 mps 749 mmHg 73%
    04:00 +7°C° 0.1 mm 2 mps 749 mmHg 75%
    05:00 +7°C° 0.1 mm 2 mps 749 mmHg 77%
    06:00 +7°C° 0.1 mm 3 mps 749 mmHg 76%
    07:00 +8°C° 0.1 mm 3 mps 750 mmHg 75%
    08:00 +8°C° 0.1 mm 3 mps 750 mmHg 74%
    09:00 +10°C° 0 mm 4 mps 751 mmHg 67%
    10:00 +10°C° 0 mm 5 mps 751 mmHg 61%
    11:00 +13°C° 0 mm 5 mps 751 mmHg 54%
    12:00 +14°C° 0 mm 5 mps 751 mmHg 52%
    13:00 +14°C° 0 mm 5 mps 751 mmHg 49%
    14:00 +15°C° 0 mm 4 mps 751 mmHg 46%
    15:00 +14°C° 0 mm 3 mps 751 mmHg 50%
    16:00 +14°C° 0 mm 2 mps 751 mmHg 54%
    17:00 +13°C° 0 mm 1 mps 752 mmHg 58%
    18:00 +13°C° 0 mm 1 mps 752 mmHg 61%
    19:00 +12°C° 0 mm 2 mps 752 mmHg 63%
    20:00 +10°C° 0 mm 2 mps 752 mmHg 65%
    21:00 +10°C° 0 mm 2 mps 752 mmHg 66%
    22:00 +10°C° 0 mm 2 mps 752 mmHg 67%
    23:00 +9°C° 0 mm 3 mps 752 mmHg 68%
    Show more